LKKB Weather Reports


time (UTC)temp
C
wind
direction
speed
KPH
gust
KPH
rain 1hr
cm
rain 24hr
cm
rain mn
cm
humidity
%
barometer
mb
20260510001853 7 90 8.0 0.0 0.00 0.00 0.00 75
20260510000103 8 80 4.8 0.0 0.00 0.00 0.00 76 1018.0
20260509233103 8 110 4.8 0.0 0.00 0.00 0.00 76 1018.0
20260509231852 7 90 11.3 0.0 0.00 0.00 0.00 81
20260509230209 8 90 9.7 0.0 0.00 0.00 0.00 76 1018.0
20260509223104 10 80 11.3 0.0 0.00 0.00 0.00 71 1018.0
20260509222154 8 80 14.5 0.0 0.00 0.00 0.00 76
20260509220210 11 80 12.9 0.0 0.00 0.00 0.00 71 1018.0
20260509214301 11 90 11.3 0.0 0.00 0.00 0.00 71 1018.0
20260509213103 8 110 9.7 0.0 0.00 0.00 0.00 76 1019.0
20260509211852 8 90 8.0 0.0 0.00 0.00 0.00 76
20260509210211 10 90 9.7 0.0 0.00 0.00 0.00 76 1019.0
20260509203102 11 80 9.7 0.0 0.00 0.00 0.00 71 1019.0
20260509201851 10 70 11.3 0.0 0.00 0.00 0.00 71
20260509200210 11 70 9.7 0.0 0.00 0.00 0.00 71 1019.0
20260509193103 12 70 11.3 0.0 0.00 0.00 0.00 66 1018.0
20260509191953 11 70 11.3 0.0 0.00 0.00 0.00 71
20260509190211 12 70 9.7 0.0 0.00 0.00 0.00 66 1018.0
20260509183102 12 60 9.7 0.0 0.00 0.00 0.00 62 1018.0
20260509181851 12 70 14.5 0.0 0.00 0.00 0.00 62
20260509180213 13 70 14.5 0.0 0.00 0.00 0.00 58 1018.0
20260509173103 15 60 12.9 0.0 0.00 0.00 0.00 54 1018.0
20260509171852 15 60 14.5 0.0 0.00 0.00 0.00 51
20260509170212 15 60 14.5 0.0 0.00 0.00 0.00 51 1018.0
20260509163102 16 70 14.5 0.0 0.00 0.00 0.00 51 1018.0
20260509162152 15 80 14.5 0.0 0.00 0.00 0.00 54
20260509153103 16 40 9.7 0.0 0.00 0.00 0.00 51 1018.0
20260509151851 16 30 11.3 0.0 0.00 0.00 0.00 51
20260509150210 16 20 11.3 0.0 0.00 0.00 0.00 51 1018.0
20260509143103 16 30 9.7 0.0 0.00 0.00 0.00 48 1019.0
20260509141852 16 70 11.3 0.0 0.00 0.00 0.00 51
20260509140211 16 60 9.7 0.0 0.00 0.00 0.00 51 1019.0
20260509133103 16 360 9.7 0.0 0.00 0.00 0.00 48 1019.0
20260509131951 16 50 11.3 0.0 0.00 0.00 0.00 51
20260509130211 16 60 11.3 0.0 0.00 0.00 0.00 48 1019.0
20260509123103 16 350 11.3 0.0 0.00 0.00 0.00 51 1019.0
20260509121852 15 10 8.0 0.0 0.00 0.00 0.00 54
20260509113103 13 340 8.0 0.0 0.00 0.00 0.00 62 1020.0
20260509111851 13 10 8.0 0.0 0.00 0.00 0.00 58
20260509110103 13 20 4.8 0.0 0.00 0.00 0.00 58 1020.0
20260509103103 13 10 8.0 0.0 0.00 0.00 0.00 58 1020.0
20260509102051 13 60 11.3 0.0 0.00 0.00 0.00 58
20260509093103 13 50 8.0 0.0 0.00 0.00 0.00 58 1020.0
20260509091853 13 50 8.0 0.0 0.00 0.00 0.00 58
20260509090210 13 40 8.0 0.0 0.00 0.00 0.00 54 1020.0
20260509083102 12 0 4.8 0.0 0.00 0.00 0.00 66 1020.0
20260509081853 12 30 3.2 0.0 0.00 0.00 0.00 66
20260509080211 12 0 3.2 0.0 0.00 0.00 0.00 71 1020.0
20260509073103 12 20 9.7 0.0 0.00 0.00 0.00 76 1020.0
20260509071950 12 40 11.3 0.0 0.00 0.00 0.00 76
20260509070210 11 50 11.3 0.0 0.00 0.00 0.00 81 1020.0
20260509063102 11 30 8.0 0.0 0.00 0.00 0.00 81 1020.0
20260509061853 10 40 3.2 0.0 0.00 0.00 0.00 87
20260509060213 10 40 4.8 0.0 0.00 0.00 0.00 81 1020.0
20260509053103 8 360 4.8 0.0 0.00 0.00 0.00 87 1020.0
20260509051851 8 360 3.2 0.0 0.00 0.00 0.00 87
20260509050210 10 0 1.6 0.0 0.00 0.00 0.00 87 1020.0
20260509043103 7 320 1.6 0.0 0.00 0.00 0.00 93 1019.0
20260509042055 7 340 3.2 0.0 0.00 0.00 0.00 93
20260509040203 7 340 1.6 0.0 0.00 0.00 0.00 93 1019.0
20260509033102 7 350 3.2 0.0 0.00 0.00 0.00 100 1019.0
20260509031851 7 350 3.2 0.0 0.00 0.00 0.00 87
20260509023103 7 10 3.2 0.0 0.00 0.00 0.00 100 1019.0
20260509021851 7 10 3.2 0.0 0.00 0.00 0.00 87
20260509013102 7 10 4.8 0.0 0.00 0.00 0.00 100 1020.0
20260509011952 7 30 3.2 0.0 0.00 0.00 0.00 87
20260509003103 8 360 3.2 0.0 0.00 0.00 0.00 87 1019.0